Tracking 30056 objects as of 10-Dec-2024
HD Live streaming from Space Station
objects crossing your sky now

ONEWEB-0177

Track ONEWEB-0177 now!
10-day predictions
ONEWEB-0177 is classified as:


NORAD ID: 48074
Int'l Code: 2021-025AJ
Perigee: 1,215.6 km
Apogee: 1,218.2 km
Inclination: 87.9 °
Period: 109.6 minutes
Semi major axis: 7587 km
RCS: Unknown
Launch date: March 25, 2021
Source: United States (US)
Launch site: VOSTOCHNY COSMODROME (VOSTO)
Your satellite tracking list
Your tracking list is empty




NASA's NSSDC Master Catalog

Two Line Element Set (TLE):
1 48074U 21025AJ  24344.67710499 -.00000091  00000-0 -28408-3 0  9990
2 48074  87.8928  70.5062 0001720 116.7299 243.4006 13.13470052180882
Source of the keplerian elements: AFSPC